This is the latest recevied weather packets stored in our database for station/object IN3XSV-15. If no packets are shown the sender has not sent any weather packets the latest 1 day(s).
| Time | Temp. | Humidity | Pressure | Rain* | Wind** | Luminosity | Snow |
|---|---|---|---|---|---|---|---|
| 1777979698 | 3.33° C | 94% | 854.1 hPa | 0 mm | 1.34 m/s, 180° | - | - |
| 1777979398 | 3.89° C | 94% | 854 hPa | 0 mm | 1.34 m/s, 180° | - | - |
| 1777979098 | 3.33° C | 94% | 853.9 hPa | 0 mm | 1.34 m/s, 180° | - | - |
| 1777978799 | 3.33° C | 94% | 854 hPa | 0 mm | 1.34 m/s, 180° | - | - |
| 1777978498 | 3.33° C | 95% | 854.1 hPa | 0 mm | 1.34 m/s, 180° | - | - |
| 1777978199 | 3.33° C | 94% | 854 hPa | 0 mm | 1.34 m/s, 180° | - | - |
| 1777977899 | 3.33° C | 95% | 854 hPa | 0 mm | 0.45 m/s, 67° | - | - |
| 1777977599 | 2.78° C | 94% | 854 hPa | 0 mm | 2.68 m/s, 180° | - | - |
| 1777977299 | 2.78° C | 94% | 854 hPa | 0 mm | 1.34 m/s, 247° | - | - |
| 1777976999 | 3.33° C | 94% | 854 hPa | 0 mm | 1.79 m/s, 202° | - | - |
| 1777976699 | 3.33° C | 94% | 853.9 hPa | 0 mm | 1.34 m/s, 180° | - | - |
| 1777976399 | 3.33° C | 94% | 854 hPa | 0 mm | 1.79 m/s, 157° | - | - |
| 1777976099 | 3.33° C | 94% | 854 hPa | 0 mm | 2.24 m/s, 180° | - | - |
| 1777975799 | 3.33° C | 94% | 854 hPa | 0 mm | 0.89 m/s, 180° | - | - |
| 1777975499 | 3.33° C | 94% | 854 hPa | 0 mm | 0 m/s | - | - |
| 1777975199 | 3.33° C | 94% | 854 hPa | 0 mm | 1.79 m/s, 180° | - | - |
| 1777974899 | 3.33° C | 94% | 854 hPa | 0 mm | 1.79 m/s, 180° | - | - |
| 1777974599 | 3.33° C | 94% | 854 hPa | 0 mm | 3.13 m/s, 180° | - | - |
| 1777974299 | 3.33° C | 94% | 854 hPa | 0 mm | 2.24 m/s, 180° | - | - |
| 1777973999 | 3.33° C | 94% | 854 hPa | 0 mm | 2.68 m/s, 180° | - | - |
| 1777973699 | 3.33° C | 94% | 854 hPa | 0 mm | 0 m/s | - | - |
| 1777973399 | 3.33° C | 94% | 854.1 hPa | 0 mm | 2.24 m/s, 180° | - | - |
| 1777973099 | 3.33° C | 94% | 854 hPa | 0 mm | 2.68 m/s, 180° | - | - |
| 1777972799 | 3.33° C | 94% | 854.2 hPa | 0 mm | 3.13 m/s, 180° | - | - |
| 1777972499 | 3.33° C | 94% | 854.2 hPa | 0 mm | 2.24 m/s, 180° | - | - |
* Rain latest hour (hover to see other rain measurements)
** Current wind speed in m/s (hover to see current wind gust speed)